Location: Newark
(44.7667°N, 11.5000°E)
Time: 15:13:59
(UTC+00:00)

Envisat - Visible Passes

Search period start: 20 October 2019 00:00
Search period end: 30 October 2019 00:00
Orbit: 764 x 766 km, 98.1° (Epoch: 20 October)

Date Brightness Start Highest point End Pass type
(mag) Time Alt. Az. Time Alt. Az. Time Alt. Az.
20 Oct 6.7 04:39:45 10° E 04:39:52 10° E 04:39:58 10° E visible
20 Oct 3.5 17:30:54 10° S 17:35:55 65° WSW 17:41:00 10° NNW visible
21 Oct 3.0 16:54:12 10° SSE 16:59:11 60° ENE 17:04:12 10° N visible
21 Oct 5.8 18:35:13 10° SW 18:38:37 18° W 18:42:01 10° NW visible
22 Oct 6.1 05:02:15 10° NE 05:05:43 18° E 05:09:09 10° SE visible
22 Oct 4.5 17:56:50 10° SSW 18:01:32 37° W 18:06:15 10° NNW visible
23 Oct 3.1 17:19:34 10° S 17:24:39 81° WSW 17:29:46 10° NNW visible
24 Oct 3.2 16:43:06 10° SE 16:47:58 48° ENE 16:52:51 10° N visible
24 Oct 5.4 18:23:18 10° SW 18:27:14 22° W 18:31:11 10° NW visible
25 Oct 6.3 04:51:35 10° NE 04:54:18 14° E 04:57:01 10° ESE visible
25 Oct 4.1 17:45:20 10° S 17:50:13 47° W 17:55:07 10° NNW visible
26 Oct 2.9 17:08:18 10° SSE 17:13:23 82° ENE 17:18:30 10° NNW visible
26 Oct 6.1 18:50:47 10° WSW 18:53:02 13° W 18:55:18 10° WNW visible
27 Oct 5.1 18:11:33 10° SSW 18:15:52 28° W 18:20:13 10° NW visible
28 Oct 6.5 04:41:24 10° ENE 04:42:53 11° E 04:44:22 10° ESE visible
28 Oct 3.6 17:33:54 10° S 17:38:54 59° W 17:43:56 10° NNW visible
29 Oct 3.0 16:57:07 10° SSE 17:02:08 66° ENE 17:07:12 10° N visible
29 Oct 5.8 18:38:29 10° SW 18:41:38 16° W 18:44:47 10° NW visible
